Regional Weather Roundup
Issued by NWS

Home | Current Version | Previous Version | Graphics & Text | Print | Product List | Glossary On
Versions: 1 2 3 4 5 6 7 8 9 10 11 12 13 14 15 16 17 18 19 20 21 22 23 24 25 26 27 28 29 30 31 32 33 34 35 36 37 38 39 40 41 42 43 44 45 46 47 48 49 50
836
ASUS43 KOAX 221502
RWRNE

WEATHER ROUNDUP FOR NEBRASKA
NATIONAL WEATHER SERVICE OMAHA NE
900 AM CST SUN JAN 22 2017

NOTES: SATELLITE DATA IS BEING USED TO AUGMENT CLOUD COVER ABOVE
       12000 FEET.
       "FAIR" INDICATES FEW OR NO CLOUDS BELOW 12,000 FEET WITH NO
       SIGNIFICANT WEATHER AND/OR OBSTRUCTIONS TO VISIBILITY.

  * THESE STATIONS DO NOT REPORT WEATHER SUCH AS RAIN...SNOW OR FOG.

NEZ001>004-019>022-054>056-221600-
NEBRASKA PANHANDLE

CITY           SKY/WX    TMP DP  RH WIND       PRES   REMARKS
SCOTTSBLUFF    CLOUDY    27  21  78 NW7       29.88R WCI  19
ALLIANCE       CLEAR     22  18  85 W7        29.85R WCI  13
CHADRON        CLOUDY    26  20  77 VRB5      29.86R WCI  20
KIMBALL        CLOUDY    31  24  73 W9        29.88R WCI  23
SIDNEY         CLEAR     29  21  72 NW14      29.87R WCI  18
$$

NEZ057>060-069>072-079>082-221600-
SOUTHWEST NEBRASKA

CITY           SKY/WX    TMP DP  RH WIND       PRES   REMARKS
NORTH PLATTE   CLEAR     29  26  89 W8        29.84R WCI  21
IMPERIAL       CLEAR     29  23  78 NW13      29.86R WCI  19
LEXINGTON      CLEAR     30  27  88 W9        29.82R WCI  21
MCCOOK         CLEAR     29  26  89 W7        29.84R WCI  22
OGALLALA       CLEAR     31  27  85 NW14      29.86R WCI  21
$$

NEZ005>010-023>029-035>040-094-221600-
NORTH CENTRAL NEBRASKA

CITY           SKY/WX    TMP DP  RH WIND       PRES   REMARKS
VALENTINE      CLOUDY    23  20  88 W7        29.82R WCI  15
AINSWORTH      CLOUDY    27  25  95 W6        29.80R WCI  20
BROKEN BOW     CLEAR     32  26  78 NW14      29.80R WCI  22
O`NEILL        CLOUDY    29  26  90 N8        29.80R WCI  21
ORD            CLEAR     30  24  78 NW9       29.78R WCI  22
THEDFORD       CLOUDY    28  26  91 NW5       29.83R WCI  23
$$

NEZ041-046>049-061>064-073>077-083>087-221600-
SOUTH CENTRAL NEBRASKA

CITY           SKY/WX    TMP DP  RH WIND       PRES   REMARKS
GRAND ISLAND   SUNNY     31  28  89 NW12      29.78R WCI  22
AURORA         SUNNY     31  29  93 N14       29.77R WCI  21
HASTINGS       SUNNY     33  27  78 N13       29.78R WCI  24
HEBRON         SUNNY     32  30  90 N5        29.76R WCI  28
HOLDREGE       CLOUDY    32  28  85 NW10      29.79R WCI  24
KEARNEY *      CLEAR    N/A N/A N/A MISG        N/A
YORK           SUNNY     32  30  93 N13       29.76R WCI  22
$$

NEZ011>018-030>034-042>045-221600-
NORTHEAST NEBRASKA

CITY           SKY/WX    TMP DP  RH WIND       PRES   REMARKS
NORFOLK        CLOUDY    29  27  92 NW9       29.77R FOG     WCI  20
ALBION         PTCLDY    28  23  82 N7        29.79R WCI  21
BLAIR          CLOUDY    33  31  93 NW13      29.73R FOG     WCI  24
FREMONT        CLOUDY    32  32  99 NW10      29.76R FOG     WCI  24
TEKAMAH        CLOUDY    33  30  88 NW10      29.75R WCI  25
WAYNE          CLOUDY    31  30  94 NW8       29.77R WCI  24
$$

NEZ050>053-065>068-078-088>093-221600-
SOUTHEAST NEBRASKA

CITY           SKY/WX    TMP DP  RH WIND       PRES   REMARKS
LINCOLN        CLOUDY    32  30  92 N12       29.77R WCI  23
OMAHA EPPLEY   PTSUNNY   33  28  81 NW9       29.75R WCI  25
BEATRICE       CLOUDY    32  31  96 N13       29.76R FOG     WCI  22
FALLS CITY     CLOUDY    32  30  92 N14       29.72R FOG     WCI  22
NEBRASKA CITY  CLOUDY    32  31  96 N15G21    29.74R FOG     WCI  22
PLATTSMOUTH    CLOUDY    32  28  86 N8        29.75R FOG     WCI  25
$$

NEZ044-045-051>053-067-221600-
OMAHA AREA

CITY           SKY/WX    TMP DP  RH WIND       PRES   REMARKS
OMAHA EPPLEY   PTSUNNY   33  28  81 NW9       29.75R WCI  25
BLAIR          CLOUDY    33  31  93 NW13      29.73R FOG     WCI  24
FREMONT        CLOUDY    32  32  99 NW10      29.76R FOG     WCI  24
MILLARD        CLOUDY    35  32  87 NW6       29.75R WCI  30
OFFUTT AFB     CLOUDY    32  32 100 N3        29.75R
PLATTSMOUTH    CLOUDY    32  28  86 N8        29.75R FOG     WCI  25
WAHOO          CLOUDY    32  31  94 N12       29.75R WCI  23
$$




USA.gov is the U.S. government's official web portal to all federal, state and local government web resources and services.